TimeCDT,TemperatureF,Dew PointF,Humidity,Sea Level PressureIn,VisibilityMPH,Wind Direction,Wind SpeedMPH,Gust SpeedMPH,PrecipitationIn,Events,Conditions,WindDirDegrees,DateUTC
12:13 AM,26.6,21.2,80,30.09,10.0,NNW,11.5,-,N/A,,Overcast,340,2013-03-25 05:13:00
12:33 AM,26.6,21.2,80,30.10,10.0,NNW,12.7,-,N/A,,Overcast,340,2013-03-25 05:33:00
12:53 AM,26.6,21.2,80,30.10,10.0,North,11.5,-,N/A,,Overcast,350,2013-03-25 05:53:00
1:13 AM,26.6,21.2,80,30.10,10.0,North,10.4,-,N/A,,Overcast,350,2013-03-25 06:13:00
1:33 AM,26.6,19.4,74,30.10,10.0,North,11.5,-,N/A,,Overcast,350,2013-03-25 06:33:00
1:53 AM,26.6,19.4,74,30.10,10.0,North,11.5,-,N/A,,Overcast,350,2013-03-25 06:53:00
2:14 AM,26.6,19.4,74,30.11,10.0,North,9.2,-,N/A,,Overcast,350,2013-03-25 07:14:00
2:33 AM,26.6,19.4,74,30.11,10.0,North,10.4,-,N/A,,Overcast,350,2013-03-25 07:33:00
2:53 AM,26.6,17.6,69,30.11,10.0,North,10.4,-,N/A,,Overcast,350,2013-03-25 07:53:00
3:13 AM,26.6,17.6,69,30.11,10.0,North,10.4,-,N/A,,Overcast,360,2013-03-25 08:13:00
3:33 AM,26.6,17.6,69,30.11,10.0,North,10.4,-,N/A,Snow,Light Snow,350,2013-03-25 08:33:00
3:53 AM,26.6,17.6,69,30.11,10.0,NNW,11.5,-,N/A,,Overcast,340,2013-03-25 08:53:00
4:14 AM,24.8,19.4,80,30.11,10.0,NNW,11.5,-,N/A,Snow,Light Snow,330,2013-03-25 09:14:00
4:53 AM,24.8,19.4,80,30.12,10.0,NNW,10.4,-,N/A,Snow,Light Snow,330,2013-03-25 09:53:00
5:33 AM,24.8,19.4,80,30.12,10.0,NNW,10.4,-,N/A,Snow,Light Snow,330,2013-03-25 10:33:00
5:53 AM,24.8,19.4,80,30.13,10.0,NNW,11.5,-,N/A,Snow,Light Snow,330,2013-03-25 10:53:00
6:13 AM,24.8,19.4,80,30.13,10.0,NNW,11.5,-,N/A,,Overcast,330,2013-03-25 11:13:00
6:33 AM,24.8,17.6,74,30.13,10.0,NNW,12.7,-,N/A,,Overcast,330,2013-03-25 11:33:00
6:53 AM,23.0,17.6,80,30.14,10.0,NNW,13.8,-,N/A,,Overcast,330,2013-03-25 11:53:00
7:14 AM,23.0,17.6,80,30.14,10.0,NNW,13.8,-,N/A,,Overcast,330,2013-03-25 12:14:00
7:33 AM,23.0,17.6,80,30.15,10.0,NNW,15.0,-,N/A,,Overcast,330,2013-03-25 12:33:00
7:53 AM,23.0,17.6,80,30.16,10.0,NNW,12.7,-,N/A,,Overcast,330,2013-03-25 12:53:00
8:14 AM,23.0,17.6,80,30.16,10.0,NNW,12.7,-,N/A,,Overcast,330,2013-03-25 13:14:00
8:33 AM,24.8,19.4,80,30.17,10.0,NNW,11.5,-,N/A,,Overcast,330,2013-03-25 13:33:00
8:53 AM,24.8,19.4,80,30.17,10.0,NNW,12.7,-,N/A,,Overcast,330,2013-03-25 13:53:00
9:13 AM,24.8,19.4,80,30.17,10.0,NNW,11.5,-,N/A,,Overcast,330,2013-03-25 14:13:00
9:33 AM,24.8,19.4,80,30.18,10.0,NNW,12.7,-,N/A,,Overcast,340,2013-03-25 14:33:00
9:53 AM,26.6,19.4,74,30.18,10.0,NNW,12.7,-,N/A,,Overcast,340,2013-03-25 14:53:00
10:13 AM,26.6,19.4,74,30.18,10.0,NNW,15.0,-,N/A,,Overcast,330,2013-03-25 15:13:00
10:33 AM,26.6,19.4,74,30.19,10.0,NNW,10.4,-,N/A,,Mostly Cloudy,340,2013-03-25 15:33:00
10:54 AM,28.4,19.4,69,30.19,10.0,NNW,12.7,-,N/A,,Scattered Clouds,340,2013-03-25 15:54:00
11:13 AM,28.4,19.4,69,30.19,10.0,NNW,11.5,-,N/A,,Clear,330,2013-03-25 16:13:00
11:33 AM,28.4,19.4,69,30.19,10.0,NW,12.7,-,N/A,,Clear,320,2013-03-25 16:33:00
11:53 AM,30.2,19.4,64,-9999,10.0,NNW,12.7,-,N/A,,Clear,330,2013-03-25 16:53:00
12:13 PM,30.2,17.6,60,30.20,10.0,NNW,16.1,-,N/A,,Clear,330,2013-03-25 17:13:00
12:33 PM,30.2,17.6,60,30.19,10.0,NNW,13.8,19.6,N/A,,Clear,330,2013-03-25 17:33:00
12:53 PM,32.0,17.6,55,30.19,10.0,NW,13.8,-,N/A,,Clear,320,2013-03-25 17:53:00
1:13 PM,32.0,17.6,55,30.19,10.0,NW,13.8,-,N/A,,Clear,320,2013-03-25 18:13:00
1:33 PM,32.0,17.6,55,30.19,10.0,NNW,13.8,18.4,N/A,,Clear,330,2013-03-25 18:33:00
1:53 PM,32.0,19.4,60,30.19,10.0,NW,12.7,-,N/A,,Clear,320,2013-03-25 18:53:00
2:13 PM,32.0,19.4,60,30.19,10.0,NW,13.8,-,N/A,,Clear,320,2013-03-25 19:13:00
2:33 PM,32.0,19.4,60,30.19,10.0,NW,13.8,-,N/A,,Scattered Clouds,320,2013-03-25 19:33:00
2:53 PM,32.0,19.4,60,30.19,10.0,NW,13.8,-,N/A,,Mostly Cloudy,310,2013-03-25 19:53:00
3:13 PM,32.0,19.4,60,30.19,10.0,NW,11.5,-,N/A,,Mostly Cloudy,310,2013-03-25 20:13:00
3:33 PM,33.8,21.2,60,30.19,10.0,NW,12.7,-,N/A,,Mostly Cloudy,310,2013-03-25 20:33:00
3:53 PM,33.8,21.2,60,30.19,10.0,NW,12.7,-,N/A,,Mostly Cloudy,310,2013-03-25 20:53:00
4:13 PM,30.2,19.4,64,30.19,10.0,NW,12.7,-,N/A,,Mostly Cloudy,310,2013-03-25 21:13:00
4:34 PM,30.2,21.2,69,30.19,10.0,West,16.1,-,N/A,,Mostly Cloudy,280,2013-03-25 21:34:00
4:53 PM,28.4,21.2,74,30.19,10.0,WNW,16.1,-,N/A,,Scattered Clouds,290,2013-03-25 21:53:00
5:13 PM,28.4,21.2,74,30.20,10.0,WNW,18.4,-,N/A,,Scattered Clouds,290,2013-03-25 22:13:00
5:34 PM,28.4,21.2,74,30.20,10.0,WNW,18.4,-,N/A,,Clear,290,2013-03-25 22:34:00
5:53 PM,28.4,21.2,74,30.21,10.0,WNW,19.6,-,N/A,,Clear,290,2013-03-25 22:53:00
6:13 PM,26.6,21.2,80,30.21,10.0,West,16.1,-,N/A,,Clear,280,2013-03-25 23:13:00
6:34 PM,26.6,21.2,80,30.22,10.0,WNW,18.4,-,N/A,,Clear,290,2013-03-25 23:34:00
6:53 PM,26.6,19.4,74,30.22,10.0,WNW,16.1,-,N/A,,Clear,290,2013-03-25 23:53:00
7:13 PM,24.8,19.4,80,30.23,10.0,WNW,16.1,-,N/A,,Clear,290,2013-03-26 00:13:00
7:33 PM,24.8,19.4,80,30.24,10.0,WNW,13.8,-,N/A,,Clear,290,2013-03-26 00:33:00
7:53 PM,23.0,17.6,80,30.24,10.0,WNW,13.8,-,N/A,,Clear,290,2013-03-26 00:53:00
8:14 PM,21.2,17.6,86,30.25,10.0,WNW,11.5,-,N/A,,Clear,290,2013-03-26 01:14:00
8:33 PM,21.2,17.6,86,30.25,10.0,WNW,10.4,-,N/A,,Clear,290,2013-03-26 01:33:00
8:53 PM,21.2,17.6,86,30.25,10.0,WNW,11.5,-,N/A,,Clear,300,2013-03-26 01:53:00
9:14 PM,19.4,15.8,86,30.25,10.0,WNW,12.7,-,N/A,,Clear,300,2013-03-26 02:14:00
9:33 PM,19.4,15.8,86,30.26,10.0,WNW,13.8,-,N/A,,Clear,300,2013-03-26 02:33:00
9:53 PM,19.4,15.8,86,30.26,10.0,WNW,11.5,-,N/A,,Clear,300,2013-03-26 02:53:00
10:13 PM,17.6,15.8,93,30.26,10.0,WNW,11.5,-,N/A,,Clear,290,2013-03-26 03:13:00
10:33 PM,17.6,14.0,86,30.26,10.0,NW,9.2,-,N/A,,Clear,310,2013-03-26 03:33:00
10:53 PM,17.6,14.0,86,30.26,10.0,WNW,10.4,-,N/A,,Clear,300,2013-03-26 03:53:00
11:13 PM,17.6,12.2,79,30.27,10.0,WNW,9.2,-,N/A,,Clear,300,2013-03-26 04:13:00
11:33 PM,15.8,12.2,86,30.27,10.0,NW,9.2,-,N/A,,Clear,310,2013-03-26 04:33:00
11:53 PM,15.8,12.2,86,30.27,10.0,NW,9.2,-,N/A,,Clear,310,2013-03-26 04:53:00